Huvudsida
METAR-TAF:

METAR-TAF

Flygplatser :

Zanjan, Iran

latitud: 36-41N, longitud: 048-29E, höjd: 1663 m

Aktuellt väderrapport

Denna rapport gjordes för 57 minuter sedan, klockan 14:00 UTC
Vind 23 kt från ost/nordost
Temperatur 22°C
Fuktighet 46%
Tryck 1018 hPa
Sikt 10 km eller mer
Få moln på en höjd av 2000 ft

METAR: OITZ 201400Z 07023KT 9999 FEW020 22/10 Q1018

Tid: 19:27 (14:57 UTC)


TAF: saknas

Aktuella väderrapporter och prognoser från 4000 flygplatser (METAR- och TAF-rapporter).

De tillgängliga stationerna syns som gula och röda prickar på kartan.

För musen över prickarna för att se namnen på stationerna.

Klicka sedan för att få väderrapporter och prognoser.

För att ändra kartan: Klicka på de gröna knapparna med ett svart kors på för att zooma in; den gröna knappen med ett streck på för att zooma ut; eller på de gröna pilarna för angränsande kartor.


METAR-TAF: